CZ-4C DEB, 45483

Orbit data source: Space-Track

CZ-4C DEB, 45483 is space debris in LEO originally from a launch on Tue, 10 Apr 2018 UTC launched from the Jiuquan Satellite Launch Center, China (JSC). Debris objects in space refer to the collection of defunct objects orbiting the Earth. Examples of debris include non-operational satellites, rocket bodies, and fragments generated from explosions, collisions, or faulty payload assembly.

Loading next visibility...
Identifier
45483, 2018-034L
Orbit
LEO
Country
Flag of CNCN / PRC
Related business
Manufacturer
Unknown
Mission
Spacecraft
Bus & Motor
Unknown
Mass
Unknown
Launch date (UTC)
2018-04-10 (8 years ago)
Launch vehicle
Unknown
Launch site
Jiuquan Satellite Launch Center, China (JSC)
Object type
Payload
Rocket body
Debris
Shape & HBR
Unknown shape, 0.1 m
Radar Cross Section
Small (<0.1 m²)

Expand to show TLE details & history
Last TLE update: 2 days ago

TLE from 2 days ago
0 CZ-4C DEB
1 45483U 18034L   26122.01849853 -.00000055  00000-0  48681-4 0  9993
2 45483  63.3973 227.5391 0266391   6.9780 353.4838 13.44333317358308
Epoch: 2026-05-02T00:26Z
TLE epoch observation values (Epoch: 2026-05-02T00:26:38.272Z)
Latitude
-0.00002°
Longitude
0.9372°
Altitude
897.255 km
Speed
7.501 km/s
True Right ascension
15h 10m 09s
True Declination
0° 00' 00"
Sunlit
Object was in full shadow at epoch
Visualization orbit readout
Latitude
Unknown
Longitude
Unknown
Altitude
Unknown
Speed
Unknown
Apparent Right ascension
Unknown
Apparent Declination
Unknown
Sunlit
N/A
Visualization observer readout
Local Sidereal Time
02:45:56
Azimuth
Unknown
Elevation
Unknown
Doppler factor
Unknown
Orbital elements
Apogee altitude
1,291.008 km
Perigee altitude
893.012 km
Semi-major axis
7,470.147 km
Eccentricity
0.02664
Inclination
63.3973°
RAAN
227.5391°
Arg. of periapsis
6.978°
True anomaly
353.12554°
Mean anomaly
353.4838°
Eccentric anomaly
353.30588°
Mean motion
3.36163 °/min
Orbital period
107.09 mins
BSTAR
0.000048681
Loading maneuver chart data...
Computing Atmospheric mass density...
Loading historical data...
Loading historical data...
Loading historical data...
Loading historical data...
Loading historical data...
Loading historical data...
Loading historical data...

Documentation

Showing up to 5 results
|